DW9791 Weather Reports


Display with metric or nautical units.
time (UTC)temp
F
wind
direction
speed
MPH
gust
MPH
rain 1hr
in
rain 24hr
in
rain mn
in
humidity
%
barometer
mb
20260505183238 53 279 0.0 0.0 0.00 0.00 0.00 81 1017.0
20260505180234 53 275 1.0 3.0 0.00 0.00 0.00 82 1016.8
20260505173231 52 264 0.0 4.0 0.00 0.00 0.00 80 1016.4
20260505163221 51 74 0.0 1.0 0.00 0.00 0.00 85 1016.1
20260505160216 49 76 0.0 0.0 0.00 0.00 0.00 86 1016.0
20260505150238 48 90 0.0 1.0 0.00 0.00 0.00 88 1015.7
20260505140229 47 321 0.0 2.0 0.00 0.00 0.00 88 1015.2
20260505130220 46 321 0.0 0.0 0.00 0.00 0.00 87 1015.0
20260505123216 46 321 0.0 2.0 0.00 0.00 0.00 88 1015.2
20260505120241 46 321 1.0 2.0 0.00 0.00 0.00 89 1015.3
20260505113237 46 315 0.0 0.0 0.00 0.00 0.00 90 1015.5
20260505093220 47 317 0.0 0.0 0.00 0.00 0.00 90 1015.9
20260505090215 48 317 0.0 3.0 0.00 0.00 0.00 90 1016.2
20260505083240 48 305 0.0 0.0 0.00 0.00 0.00 91 1016.2
20260505080237 48 306 0.0 3.0 0.00 0.00 0.00 90 1016.5
20260505073232 48 310 0.0 0.0 0.00 0.00 0.00 90 1016.3
20260505070229 48 310 0.0 2.0 0.00 0.00 0.00 90 1016.0
20260505063224 48 325 0.0 0.0 0.00 0.00 0.00 88 1015.9
20260505053245 50 325 0.0 1.0 0.00 0.00 0.00 85 1016.6
20260505050241 50 325 2.0 3.0 0.00 0.00 0.00 82 1016.8
20260505040232 52 318 0.0 1.0 0.00 0.00 0.00 82 1016.2
20260505030223 53 329 0.0 2.0 0.00 0.00 0.00 78 1015.5
20260505023219 54 304 0.0 3.0 0.00 0.00 0.00 78 1015.5
20260505020244 55 304 2.0 2.0 0.00 0.00 0.00 77 1015.5
20260505013240 55 5 0.0 5.0 0.00 0.00 0.00 76 1015.2
20260505003231 58 319 0.0 3.0 0.00 0.00 0.00 73 1015.5
20260504230219 57 360 3.0 9.0 0.00 0.00 0.00 72 1015.5
20260504223245 56 315 0.0 9.0 0.00 0.00 0.00 73 1015.6
20260504220241 57 176 0.0 12.0 0.00 0.00 0.00 70 1015.8
20260504213237 57 205 5.0 7.0 0.00 0.00 0.00 71 1015.9
20260504203229 56 163 2.0 9.0 0.00 0.00 0.00 74 1016.3
20260504200224 56 129 5.0 11.0 0.00 0.00 0.00 74 1016.3
20260504193220 56 263 9.0 10.0 0.00 0.00 0.00 72 1016.4